This is the latest recevied weather packets stored in our database for station/object KE5OYL. If no packets are shown the sender has not sent any weather packets the latest 10 day(s).
| Time | Temp. | Humidity | Pressure | Rain* | Wind** | Luminosity | Snow |
|---|---|---|---|---|---|---|---|
| 1777852718 | 26.67° C | 32% | 1016.1 hPa | 0 mm | - | 91 W/m² | - |
| 1777852416 | 26.11° C | 31% | 1016.3 hPa | 0 mm | - | 103 W/m² | - |
| 1777852113 | 26.67° C | 31% | 1016.1 hPa | 0 mm | - | 116 W/m² | - |
| 1777851811 | 26.11° C | 32% | 1016.4 hPa | 0 mm | - | 128 W/m² | - |
| 1777851508 | 26.67° C | 32% | 1016.4 hPa | 0 mm | - | 143 W/m² | - |
| 1777851204 | 26.67° C | 33% | 1016.3 hPa | 0 mm | - | 164 W/m² | - |
| 1777850900 | 26.67° C | 32% | 1016.4 hPa | 0 mm | - | 168 W/m² | - |
| 1777850598 | 26.67° C | 33% | 1016.3 hPa | 0 mm | - | 183 W/m² | - |
| 1777850296 | 26.67° C | 33% | 1016.2 hPa | 0 mm | - | 232 W/m² | - |
| 1777849993 | 26.67° C | 33% | 1016.2 hPa | 0 mm | - | 182 W/m² | - |
| 1777849688 | 26.67° C | 34% | 1016.3 hPa | 0 mm | - | 209 W/m² | - |
| 1777849386 | 26.67° C | 33% | 1016.4 hPa | 0 mm | - | 218 W/m² | - |
| 1777849083 | 26.67° C | 32% | 1016.5 hPa | 0 mm | - | 212 W/m² | - |
| 1777848778 | 26.67° C | 32% | 1016.6 hPa | 0 mm | - | 274 W/m² | - |
| 1777848475 | 27.22° C | 32% | 1016.6 hPa | 0 mm | - | 307 W/m² | - |
| 1777848173 | 27.22° C | 31% | 1016.5 hPa | 0 mm | - | 327 W/m² | - |
| 1777847870 | 27.22° C | 33% | 1016.4 hPa | 0 mm | - | 346 W/m² | - |
| 1777847568 | 27.22° C | 33% | 1016.7 hPa | 0 mm | - | 135 W/m² | - |
| 1777847264 | 27.22° C | 33% | 1016.6 hPa | 0 mm | - | 211 W/m² | - |
| 1777846962 | 26.67° C | 32% | 1016.7 hPa | 0 mm | - | 254 W/m² | - |
| 1777846660 | 27.22° C | 32% | 1016.9 hPa | 0 mm | - | 315 W/m² | - |
| 1777846358 | 27.22° C | 32% | 1016.8 hPa | 0 mm | - | 385 W/m² | - |
| 1777846054 | 27.22° C | 32% | 1016.9 hPa | 0 mm | - | 428 W/m² | - |
| 1777845751 | 27.22° C | 32% | 1017 hPa | 0 mm | - | 439 W/m² | - |
| 1777845447 | 27.22° C | 30% | 1016.9 hPa | 0 mm | - | 458 W/m² | - |
* Rain latest hour (hover to see other rain measurements)
** Current wind speed in m/s (hover to see current wind gust speed)